DateTimeUTC,F1_A11,F1_S11,BsB_S11,BsG_S11,BsR_S11,BbsB_S11,BbsG_S11,BbsR_S11,BaB_A11,BaG_A11,BaR_A11,Tu_S11,T_S11,Uu_S11,U_S11,P_S11,T1_A11
2021-01-29T06:00:00Z,00000200,21000000,,,,,,,-000.15,-000.44,-000.29,15.6,23.4,,00.0,0634.7,30.9
2021-01-29T06:01:00Z,00000200,21000000,,,,,,,0000.22,0000.65,0000.25,15.5,23.4,,00.0,0634.7,30.9
2021-01-29T06:02:00Z,00000200,21000000,,,,,,,0000.04,0000.12,0000.40,15.5,23.4,,00.0,0634.7,30.9
2021-01-29T06:03:00Z,00000200,61000000,,,,,,,0000.24,0000.16,0000.02,15.5,23.4,,00.0,0634.7,30.9
2021-01-29T06:04:00Z,00000200,41000000,0000.55,0000.30,0000.32,-000.27,0000.04,0000.29,0000.22,0000.34,0000.27,15.9,23.2,,00.0,0635.5,30.9
2021-01-29T06:05:00Z,00000200,01000000,0000.33,0000.27,0000.14,-000.28,-000.04,0000.22,0000.31,-000.04,0000.03,16.1,23.2,,00.0,0635.6,30.9
2021-01-29T06:06:00Z,00000200,01000000,0000.70,0000.21,0000.14,-000.04,-000.12,0000.24,0000.09,0000.35,0000.51,16.1,23.2,,00.0,0635.6,30.9
2021-01-29T06:07:00Z,00000200,01000000,0000.85,0000.03,0000.21,-000.00,0000.19,0000.05,0000.13,-000.34,-000.38,16.2,23.2,,00.0,0635.6,30.9
2021-01-29T06:08:00Z,00000200,01000000,0000.26,0000.39,-000.01,-000.65,-000.14,-000.16,-000.31,0000.04,0000.13,16.2,23.2,,00.0,0635.6,30.9
2021-01-29T06:09:00Z,00000200,01000000,0001.46,0000.42,0000.25,0000.43,0000.14,0000.21,0000.37,0000.11,-000.40,16.2,23.2,,00.0,0635.6,30.9
2021-01-29T06:10:00Z,00000200,01000000,0000.23,0000.25,0000.21,-000.40,0000.10,-000.05,-000.26,0000.25,0000.10,16.1,23.2,,00.0,0635.6,30.9
2021-01-29T06:11:00Z,00000200,01000000,0000.92,0000.08,0000.30,-000.01,-000.02,-000.03,0000.55,0000.25,0000.19,16.0,23.1,,00.0,0635.6,30.9
2021-01-29T06:12:00Z,00000200,01000000,0001.05,0000.05,0000.04,-000.11,0000.20,-000.12,0000.01,-000.28,0000.38,16.0,23.1,,00.0,0635.6,30.9
2021-01-29T06:13:00Z,00000200,01000000,0000.94,-000.02,0000.16,-000.82,0000.16,0000.24,0000.29,0000.57,0000.12,15.9,23.0,,00.0,0635.5,30.9
2021-01-29T06:14:00Z,00000200,01000000,0000.23,0000.12,0000.25,-000.24,0000.05,-000.01,-000.14,-000.15,-000.05,15.8,23.0,,00.0,0635.5,30.9
2021-01-29T06:15:00Z,00000200,01000000,0000.43,-000.09,0000.05,-000.28,0000.09,0000.06,0000.41,0000.01,0000.20,15.8,22.9,,00.0,0635.5,30.9
2021-01-29T06:16:00Z,00000200,01000000,0001.00,0000.04,0000.13,-000.09,0000.20,0000.01,0000.58,0000.72,0000.28,15.7,22.9,,00.0,0635.4,30.8
2021-01-29T06:17:00Z,00000200,01000000,0000.95,0000.20,-000.16,-000.15,-000.03,-000.04,0000.52,0000.61,0000.37,15.8,22.9,,00.0,0635.4,30.9
2021-01-29T06:18:00Z,00000200,01000000,0000.19,-000.10,0000.07,0000.02,0000.23,0000.09,0000.39,0000.11,0000.41,15.8,23.0,,00.0,0635.4,30.9
2021-01-29T06:19:00Z,00000200,01000000,0000.92,0000.19,0000.26,0000.11,-000.11,-000.08,0000.67,0000.84,0000.37,15.9,23.0,,00.0,0635.3,30.9
2021-01-29T06:20:00Z,00000200,01000000,0000.16,0000.05,0000.07,-000.25,0000.08,-000.15,0000.12,0000.24,0000.10,16.0,23.0,,00.0,0635.3,30.9
2021-01-29T06:21:00Z,00000200,01000000,0000.54,0000.15,0000.03,-000.10,0000.23,0000.14,0000.66,0000.33,0000.30,16.1,23.1,,00.0,0635.3,30.9
2021-01-29T06:22:00Z,00000200,01000000,0000.26,-000.23,0000.05,-000.53,0000.10,-000.14,0000.51,0000.54,0000.46,16.1,23.1,,00.0,0635.3,30.9
2021-01-29T06:23:00Z,00000200,01000000,0001.20,0000.18,0000.21,-000.03,-000.02,0000.13,0000.01,0000.28,-000.10,16.2,23.1,,00.0,0635.2,30.9
2021-01-29T06:24:00Z,00000200,01000000,0000.99,0000.06,0000.08,-000.39,0000.02,-000.02,0000.29,0000.18,-000.03,16.3,23.2,,00.0,0635.2,30.9
2021-01-29T06:25:00Z,00000200,01000000,0000.74,-000.10,0000.57,-000.11,0000.10,0000.13,-000.14,0000.07,0000.04,16.3,23.1,,00.0,0635.2,30.9
2021-01-29T06:26:00Z,00000200,01000000,0001.30,0000.24,0000.19,-000.24,0000.05,0000.06,0000.41,-000.05,0000.16,16.2,23.1,,00.0,0635.2,30.9
2021-01-29T06:27:00Z,00000200,01000000,0000.42,0000.18,0000.13,-000.11,0000.00,0000.13,0000.52,0000.81,0000.40,16.1,23.1,,00.0,0635.2,30.9
2021-01-29T06:28:00Z,00000200,01000000,0001.14,0000.22,-000.05,0000.07,0000.07,-000.20,0000.35,-000.39,0000.04,16.1,23.1,,00.0,0635.2,30.9
2021-01-29T06:29:00Z,00000200,01000000,0000.73,0000.27,0000.29,0000.04,0000.06,0000.43,-000.16,0000.20,0000.13,16.0,23.0,,00.0,0635.2,30.9
2021-01-29T06:30:00Z,00000200,01000000,0001.29,0000.13,0000.01,-000.20,0000.29,0000.02,0000.36,0000.37,0000.17,15.9,23.0,,00.0,0635.3,30.9
2021-01-29T06:31:00Z,00000200,01000000,0000.46,0000.46,-000.14,-000.13,0000.12,-000.10,0000.76,0000.28,0000.48,15.9,23.0,,00.0,0635.3,30.9
2021-01-29T06:32:00Z,00000200,01000000,0001.15,0000.23,0000.35,-000.30,0000.12,0000.16,0000.25,0000.54,0000.25,15.9,23.0,,00.0,0635.3,30.9
2021-01-29T06:33:00Z,00000200,01000000,0000.80,0000.55,-000.06,-000.04,-000.12,-000.03,0000.36,0000.55,0000.37,16.0,23.0,,00.0,0635.3,30.9
2021-01-29T06:34:00Z,00000200,01000000,0000.69,0000.12,-000.08,-000.45,0000.04,0000.00,0000.59,0000.12,0000.23,16.1,23.0,,00.0,0635.3,30.9
2021-01-29T06:35:00Z,00000200,01000000,0000.54,0000.16,0000.09,-000.09,-000.00,-000.02,-000.06,0000.41,0000.16,16.1,23.1,,00.0,0635.3,30.9
2021-01-29T06:36:00Z,00000200,01000000,0000.66,0000.22,-000.04,0000.12,0000.13,0000.12,0000.31,0000.37,-000.03,16.2,23.1,,00.0,0635.3,30.9
2021-01-29T06:37:00Z,00000200,01000000,-000.43,0000.47,0000.20,0000.33,0000.13,-000.12,0000.38,0000.03,0000.25,16.3,23.1,,00.0,0635.4,30.9
2021-01-29T06:38:00Z,00000200,01000000,0000.92,0000.16,0000.42,-000.48,0000.12,0000.01,-000.13,0000.40,-000.29,16.3,23.1,,00.0,0635.4,30.9
2021-01-29T06:39:00Z,00000200,01000000,0000.30,0000.34,0000.21,-000.15,-000.16,0000.03,0000.11,-000.35,0000.25,16.3,23.1,,00.0,0635.3,30.9
2021-01-29T06:40:00Z,00000200,01000000,0001.00,0000.10,0000.22,-000.52,0000.22,-000.15,0000.18,0000.65,0000.14,16.3,23.1,,00.0,0635.3,30.9
2021-01-29T06:41:00Z,00000200,01000000,0000.80,0000.14,-000.07,0000.11,0000.04,-000.10,0000.37,-000.16,0000.19,16.2,23.1,,00.0,0635.3,30.9
2021-01-29T06:42:00Z,00000200,01000000,0000.79,0000.17,0000.36,-000.17,0000.14,0000.07,0000.64,0000.22,0000.45,16.1,23.1,,00.0,0635.3,30.9
2021-01-29T06:43:00Z,00000200,01000000,0000.66,0000.11,0000.16,0000.01,0000.18,-000.00,0000.14,0000.17,-000.13,16.1,23.0,,00.0,0635.3,30.9
2021-01-29T06:44:00Z,00000200,01000000,0000.11,-000.28,0000.40,0000.01,0000.37,0000.15,-000.08,0000.39,-000.06,16.0,23.0,,00.0,0635.3,30.9
2021-01-29T06:45:00Z,00000200,01000000,0000.82,0000.07,0000.22,-000.27,-000.08,-000.44,0000.16,-000.50,0000.33,15.9,23.0,,00.0,0635.3,30.9
2021-01-29T06:46:00Z,00000200,01000000,0001.06,0000.23,0000.22,0000.02,0000.10,0000.06,0000.42,0000.54,0000.17,15.9,22.9,,00.0,0635.3,30.9
2021-01-29T06:47:00Z,00000200,01000000,0001.18,0000.42,0000.29,-000.57,0000.14,-000.14,0000.10,0000.29,0000.20,15.9,22.9,,00.0,0635.3,30.9
2021-01-29T06:48:00Z,00000200,01000000,0000.63,-000.16,0000.34,-000.01,0000.00,0000.05,0000.57,0000.67,0000.49,16.0,23.0,,00.0,0635.3,30.9
2021-01-29T06:49:00Z,00000200,01000000,-000.01,0000.31,0000.05,-000.20,0000.08,-000.02,0000.42,0000.38,0000.02,16.1,23.0,,00.0,0635.3,30.9
2021-01-29T06:50:00Z,00000200,01000000,0000.01,0000.30,0000.37,-000.19,0000.04,0000.10,-000.25,-000.21,0000.07,16.1,23.0,,00.0,0635.3,30.9
2021-01-29T06:51:00Z,00000200,01000000,0000.82,0000.19,-000.03,-000.19,0000.01,0000.13,0000.54,0000.46,0000.10,16.2,23.1,,00.0,0635.3,30.9
2021-01-29T06:52:00Z,00000200,01000000,0000.76,0000.10,0000.23,0000.51,0000.09,0000.30,0000.06,0000.30,0000.39,16.3,23.1,,00.0,0635.3,30.9
2021-01-29T06:53:00Z,00000200,01000000,0001.06,-000.07,0000.37,-000.24,-000.03,0000.08,0000.32,-000.21,-000.23,16.4,23.1,,00.0,0635.3,30.9
2021-01-29T06:54:00Z,00000200,01000000,0000.55,0000.30,0000.19,-000.04,0000.14,-000.12,0000.09,0000.19,0000.40,16.4,23.2,,00.0,0635.3,30.9
2021-01-29T06:55:00Z,00000200,01000000,0000.73,0000.26,0000.00,0000.07,-000.04,-000.04,0000.29,0000.42,-000.03,16.4,23.2,,00.0,0635.3,30.9
2021-01-29T06:56:00Z,00000200,01000000,0001.28,0000.10,0000.22,-000.02,0000.14,0000.17,0000.22,0000.04,0000.00,16.4,23.2,,00.0,0635.3,30.9
2021-01-29T06:57:00Z,00000200,41000000,,,,,,,-001.73,-001.46,-001.18,16.4,23.2,,00.0,0635.3,30.9
2021-01-29T06:58:00Z,00000200,61000000,,,,,,,0000.39,0000.16,0000.81,15.8,23.2,,00.0,0634.5,30.9
2021-01-29T06:59:00Z,00000200,21000000,,,,,,,0000.17,0000.33,-000.40,15.8,23.3,,00.0,0634.5,30.9
